Погода в Елабуге

Погода в Елабуге : погода сейчас, прогноз погоды и архив. Всё, что Вы хотите узнать о погоде в Елабуге!

Поиск расширенной информации на нашем сайте:

Другие новости

Новости СМИ2

Главная страница сайта

Новости сайта

02.10.2013

Напоминаем, что на нашем новом сайте вы можете получить высокодетализированные прогнозы погоды по пунктам России, СНГ и мира (включающие важные для авиации метеовеличины, такие как направление и скорость ветра, видимость, явления погоды, количество и форма облачности, нижняя и верхняя граница облачности), а также ознакомиться с разнообразными материалами по авиационной метеорологии и подборкой полезных ссылок на эту тему.

Сайт Метеоцентр.Азия посвящён разработке технологий оптимизации авиаметеорологического обслуживания, включая проектирование и перспективное создание нескольких автоматизированных авиаметеорологических систем:
- система выпуска высокодетальных прогностических карт явлений погоды для нижнего воздушного пространства по России и ближнему зарубежью;
- система верификации прогнозов TAF (выпускаемых синоптиками официальных АМСГ РФ и ближнего зарубежья) и AUTOTAF (выпускаемых сайтом Метеоцентр.Азия) - выявление ошибок, онлайн-сопоставление с фактической погодой METAR, автоматическое внесение коррективов в прогнозы при резком отклонении фактической погоды от прогноза, подсчёт оправдываемости прогнозов по элементам и в целом;
- система обработки, анализа и отображения авиаметеорологической информации для применения провайдерами метеорологической информации.

Рекомендуем: http://teplo-dim.com/ купити електрокамін у львові - каміни електричні електрокаміни.

Погода в Елабуге - сегодня

Время (UTC), дата Ветер
(°,м/с) 
Видим.   Явления Облачность Т
(°С)
Тd
(°С)
f(%) Тe
(°С)
Pmin
(гПа)
dP
(гПа)
Po
(мм)
O2
(г/м3)
Тmin Tmax R s Состояние
почвы
12 16.02.17 230 (ЮЗ) 4000 м  слаб. ливневой снег  10/10 570 м кучево-дожд. 
[Cb cap]
-9.1 -9.1 100 -11  1002.7  1.3  746  312           
15 16.02.17 250 (З) 1000 м  ливневой снег  10/10 540 м кучево-дожд. 
[Cb cap]
-9.1 -9.1 100 -14  1004.6  1.9  747  312           
18 16.02.17 220 (ЮЗ) 1000 м  ливневой снег  10/10 540 м кучево-дожд. 
[Cb cap]
-8.9 -8.9 100 -11  1005.5  0.9  748  313           
21 16.02.17 210 (ЮЗ) 2000 м  слаб. ливневой снег  10/10 540 м кучево-дожд. 
[Cb cap]
-10.9 -12.3 89 -14  1005.9  0.3  748  315  -10.9    39  равномерный
сухой снег
100% 
00 17.02.17 190 (Ю) 1000 м  ливневой снег  9/9 600 м кучево-дожд. 
[Cb cap]
-12.2 -14.2 85 -16  1006.2  0.3  749  317  -12.3         
03 17.02.17 190 (Ю) 1000 м  ливневой снег  9/9 570 м кучево-дожд. 
[Cb cap]
-11.6 -14.1 82 -16  1005.7  -0.5  748  316           
06 17.02.17 220 (ЮЗ) 3{10}  2000 м  слаб. ливневой снег  9/9 630 м 
-11.4 -14.9 75 -15  1005.9  0.2  748  316           
09 17.02.17 210 (ЮЗ) 2000 м  слаб. ливневой снег  10/10 660 м кучево-дожд. 
[Cb cap]
-12.1 -14 86 -15  1007.8  1.9  750  317    -10.9     
12 17.02.17 010 (С) 2000 м  слаб. ливневой снег  9/9 600 м кучево-дожд. 
[Cb cap]
-15.2 -16.8 88 -15  1009.7  1.7  751  322           
15 17.02.17 280 (З) 10 км  {ливн. осадки}  9/9 660 м кучево-дожд. 
[Cb cap]
-17.5 -19.3 86 -18  1012  2.3  753  326           
18 17.02.17 260 (З) 10 км  {ливн. осадки}  10/6 600 м кучево-дожд., верхняя 
[Cb cap|Cs]
-16 -17.6 87 -16  1012.9  0.9  753  324           
21 17.02.17 160 (Ю) 10 км  слаб. снег  10/0 верхняя 
[Cs]
-18.6 -20.6 84 -21  1014.3  1.3  754  328  -18.6    0.8  41  равномерный
сухой снег
100% 
00 18.02.17 220 (ЮЗ) 20000 м  {снег}  10/0 средняя, верхняя 
[Ac trans|Ci fib]
-17.9 -19.8 85 -18  1015.5  1.2  755  327  -19.7         
03 18.02.17 180 (Ю) 20000 м    8/0 верхняя 
[Ci fib]
-14.7 -18.9 70 -17  1015.3  0.1  755  323           
06 18.02.17 300 (СЗ) 20000 м    1/0 верхняя 
[Ci fib]
-13.9 -20.4 58 -16  1015.2  -0.1  755  322           
09 18.02.17 180 (Ю) 20000 м    3/0 верхняя 
[Ci fib]
-17.5 -21.4 72 -20  1016.9  1.6  756  327    -13.1  0.0     
12 18.02.17 170 (Ю) 20000 м    ясно 
-19.8 -22.5 79 -26  1017.3  0.2  757  330           
15 18.02.17 170 (Ю) 20000 м  позёмок  ясно 
-21.6 -23.6 84 -28  1016.9  -0.4  756  333           
18 18.02.17 170 (Ю) 20000 м    ясно 
-22.8 -25.1 81 -30  1017.1  0.1  756  334           
21 18.02.17 160 (Ю) 20000 м    ясно 
-24.4 -27.1 78 -31  1016.9  -0.2  756  336  -24.4      39  равномерный
сухой снег
100% 
00 19.02.17 180 (Ю) 20000 м    ясно 
-22.4 -26.3 71 -28  1017.5  0.6  757  334  -24.9         
03 19.02.17 170 (Ю) 20000 м    ясно 
-16.3 -24.6 49 -22  1016  -1.3  756  326           
06 19.02.17 260 (З) 20000 м    ясно 
-14.2 -22.6 49 -19  1015.2  -0.7  755  323           
09 19.02.17 210 (ЮЗ) 20000 м    ясно 
-18.2 -23.8 61 -18  1015.5  0.2  755  328    -13.8       
12 19.02.17 220 (ЮЗ) 20000 м    ясно 
-19.6 -24.7 64 -20  1015.4  -0.2  755  330           
Время (UTC), дата Ветер
(°,м/с) 
Видим.   Явления Облачность Т
(°С)
Тd
(°С)
f(%) Тe
(°С)
Pmin
(гПа)
dP
(гПа)
Po
(мм)
O2
(г/м3)
Тmin Tmax R s Состояние
почвы

Для получения пояснительной информации подведите курсор к названию столбца.

ПОГОДА в Елабуге - архив

Всё, что Вы хотите узнать о погоде в Елабуге - удобно и подробно!

Выберите нужную дату (начиная с 1 января 2015* года) и нажмите кнопку "Найти".
Будут отображены архивные сводки погоды по пункту Елабуга, начиная с указанной даты.


Отображать данные в формате CSV (для использования в таблицах Excel)


Внимание! Наш архив погоды предназначен исключительно для личного некоммерческого использования в познавательных целях. Если Вам необходимы официальные справки о состоянии погоды (для производственных, юридических, коммерческих и т.п. целей), обращайтесь в органы Росгидромета.

*Примечание: данная дата относится к архиву по метеостанциям СССР (Россия, СНГ, Балтия).
Архив по метеостанциям Зарубежной Европы и Азии (кроме Китая) хранится 10 дней, по другим регионам земного шара (Китай, Африка, Америка, Австралия, Океания) - 1 день.

Елабуга - район местоположения метеостанции


Название, широта, долгота, высота метеостанции:
Елабуга 48.8°ш. 135.9°д. 58 м над ур. моря [Российская Федерация]

Дополнительная информация

В oтличие oт бoльшинства пoгoдных сайтoв мы публикуем пoдрoбную метеoинфoрмацию в детальнoм прoфессиoнальнoм фoрмате.

Характеристики температуры и влажнoсти вoздуха измеряются на высoте 2 м в тени вдали oт зданий и деревьев.
Скoрoсть ветра измеряется на высoте 10 м (на урoвне рoста челoвека скoрoсть ветра ниже в 1.5-2 раза). Если метеoстанция нахoдится в гoрoде или в лесу, тo скoрoсть ветра занижена на 2-4 м/с пo сравнению с oткрытым местoм. Скoрoсть ветра над акватoриями крупных рек и oзёр, а также на вершинах хoлмoв на 2-5 м/с выше, чем в oбычных услoвиях.
Атмoсфернoе давление в разных тoчках местнoсти мoжет значительнo oтличаться oт давления на метеoстанции, в зависимoсти oт услoвий рельефа (при пoдъёме на 10 м давление пoнижается примернo на 1 мм рт.ст.).